Location: Penum?ka
(16.4840°N, 80.5772°E)
Time: 14:09:14
(UTC+00:00)

H-2A R/B - Pass Details

Date: 19 May 2025
Orbit: 730 x 830 km, 98.3° (Epoch: 18 June)

Event Time Altitude Azimuth Distance (km) Brightness Sun altitude
Rises 21:21:14 0° 26° (NNE) 3,364 6.2 -35.1°
Reaches altitude 10° 21:23:49 10° 36° (NE) 2,428 5.3 -34.7°
Enters shadow 21:28:37 34° 99° (E) 1,326 3.4 -33.8°
